Forside
METAR-TAF:

METAR-TAF

Lufthavne :

Cloquet/Carlton County Airport

Cloquet, Minnesota, USA

Breddekreds: 46-42N, længdekreds: 092-30W, højde: 390 m

Aktuelle vejr

Denne rapport blev lavet for 24 minutter siden, kl. 03:35 UTC
Vind 10 kt fra vestsydvest
Temperatur -23°C
Fugtighed 70%
Tryk 1018 hPa
Sigt: 16.1 km
skyfri

METAR: KCOQ 110335Z AUTO 25010KT 10SM CLR M23/M27 A3007 RMK AO2

Tid: 21:59 (03:59 UTC)


TAF: fraværende

Vejrobservationer og prognoser fra mere end 4000 lufthavne (METAR og TAF).

De gule og røde prikker repræsenterer de meteorologiske stationer.

Flyt musen over at se navnet på stationen.

Så klik over at se vejr observationer og prognoser.

At skifte det kort: Klik på de grønne knapper med et sort kors for at zoome ind; på den grønne knap med en bindestreg for at zoome ud; eller på de grønne pile for tilstødende kort.


METAR-TAF: